Flag for Canada Weather past 2 weeks in Winnipeg, Manitoba, Canada

Now
72 °F

Scattered clouds.


Feels Like: 77 °F
Forecast: 45 / 73 °F
Wind: 15 mph from Southwest

Location: Winnipeg Int. Airportman.

Current Time: Jul 7, 2015 at 3:05:09 PM

Latest Report: Jul 7, 2015 at 2:00 PM


Visibility: 15 mi

Pressure: 30.08 "Hg

Humidity: 47%

Dew point: 50 °F

Location of WinnipegLocation

Historic Weather in Winnipeg — Graph

°F

Winnipeg temperature yesterday

Maximum temperature yesterday: 66 °F (at 7:00 PM)
Minimum temperature yesterday: 46 °F (at 4:00 AM)
Average temperature yesterday: 56 °F

Past Weeks' High & Low Weather Summary

 TemperatureHumidityPressure
High82 °F (Jun 28, 5:00 PM)100% (Jun 24, 6:00 AM)30.16 "Hg (Jun 24, 6:00 AM)
Low46 °F (Jul 6, 4:00 AM)42% (Jun 26, 4:00 PM)29.63 "Hg (Jul 4, 6:00 PM)
Average67 °F77%29.94 "Hg
* Reported Jun 22 2:00 PM — Jul 7 2:00 PM, Winnipeg, Weather by CustomWeather, © 2015

Note: Actual official high and low records may vary slightly from our data, if they occured in-between our weather recording intervals... More about our weather records

Advertising

Winnipeg weather history for previous 24 hours

 ConditionsComfort  
Time TempWeatherWind HumidityBarometerVisibility
2:00 PM
Tue, Jul 7
72 °FScattered clouds.15 mph47%30.08 "Hg15 mi
1:00 PM70 °FScattered clouds.16 mph50%30.10 "Hg15 mi
12:00 PM70 °FPassing clouds.8 mph53%30.11 "Hg15 mi
11:00 AM66 °FPassing clouds.12 mph60%30.13 "Hg15 mi
10:00 AM64 °FPassing clouds.7 mph60%30.14 "Hg15 mi
9:00 AM61 °FPassing clouds.7 mph68%30.15 "Hg15 mi
8:00 AM55 °FSunny.9 mph72%30.15 "Hg15 mi
7:00 AM54 °FPassing clouds.7 mph77%30.14 "Hg15 mi
6:00 AM50 °FPassing clouds.7 mph76%30.15 "Hg15 mi
5:00 AM50 °FPassing clouds.9 mph76%30.15 "Hg15 mi
4:00 AM50 °FClear.9 mph76%30.16 "Hg15 mi
3:00 AM46 °FClear.9 mph82%30.16 "Hg15 mi
2:00 AM46 °FClear.8 mph87%30.16 "Hg15 mi
1:00 AM46 °FClear.7 mph87%30.15 "Hg15 mi
12:00 AM50 °FClear.9 mph82%30.14 "Hg15 mi
11:00 PM
Mon, Jul 6
50 °FClear.7 mph88%30.14 "Hg15 mi
10:00 PM52 °FPassing clouds.7 mph82%30.14 "Hg15 mi
9:00 PM57 °FPassing clouds.7 mph72%30.13 "Hg15 mi
8:00 PM63 °FPassing clouds.9 mph59%30.13 "Hg15 mi
7:00 PM66 °FPassing clouds.9 mph46%30.13 "Hg15 mi
6:00 PM64 °FPassing clouds.12 mph46%30.13 "Hg15 mi
5:00 PM64 °FPassing clouds.14 mph49%30.13 "Hg15 mi
4:00 PM64 °FScattered clouds.10 mph52%30.13 "Hg15 mi
3:00 PM63 °FPartly sunny.15 mph56%30.14 "Hg15 mi
Weather by CustomWeather, © 2015

See weather overviewHow to use our weather pages